Regional Weather Roundup
Issued by NWS

Home | Current Version | Previous Version | Text Only | Print | Product List | Glossary Off
Versions: 1 2 3 4 5 6 7 8 9 10 11 12 13 14 15 16 17 18 19 20 21 22 23 24 25 26 27 28 29 30 31 32 33 34 35 36 37 38 39 40 41 42 43 44 45 46 47 48 49 50

593
ASUS43 KDTX 210201
RWRMI
MICHIGAN HOURLY REGIONAL WEATHER ROUNDUP
NATIONAL WEATHER SERVICE DETROIT/PONTIAC MI
900 PM EST MON NOV 20 2017

NOTE: "FAIR" INDICATES FEW OR NO CLOUDS BELOW 12,000 FEET WITH NO
SIGNIFICANT WEATHER AND/OR OBSTRUCTION TO VISIBILITY.

MIZ047>049-052>055-059>063-066>070-074>076-081>083-210300-
SOUTHEAST LOWER MICHIGAN

CITY           SKY/WX    TMP DP  RH WIND       PRES   REMARKS
ADRIAN         CLEAR     39  27  62 SW18      29.86F WCI  30
ALMA           CLOUDY    44  31  60 SW13G22   29.71S
ANN ARBOR      CLEAR     39  29  67 S12       29.83F WCI  32
BAD AXE        CLOUDY    40  29  66 S16       29.70F WCI  31
CARO           CLOUDY    44  30  58 S20G29    29.70F
DETROIT CITY   CLEAR    N/A N/A N/A SW17G28   29.84F
DETROIT        PTCLDY    41  28  60 S18       29.86F
FLINT          PTCLDY    43  27  53 S17G23    29.76F
GROSSE ILE     CLEAR     42  29  58 SW17G25   29.86F
HILLSDALE      CLEAR     37  27  65 S12G20    29.82F WCI  30
HOWELL         CLOUDY    42  28  59 S15G22    29.78F

CITY           SKY/WX    TMP DP  RH WIND       PRES   REMARKS
JACKSON        CLEAR     42  26  53 S15G29    29.80F
LAMBERTVILLE   CLEAR     42  27  54 S12G20    29.88F
LANSING        CLEAR     44  28  53 SW22G32   29.75F
LAPEER         FAIR      43  28  54 SW18G25   29.76F
MASON          CLEAR     44  28  52 S9G23     29.77F
MONROE         CLEAR     42  26  53 S14G21    29.86F
MT. CLEMENS    PTCLDY    42  30  62 SW22G28   29.80F
PONTIAC        CLOUDY    41  28  60 S15G22    29.79F
PORT HOPE        N/A     42  29  59 SW8       29.67F
PORT HURON     CLEAR     41  30  65 S15G26    29.81F
TRI CITIES     CLEAR     46  31  55 SW18G28   29.70F
MIDLAND        FAIR      44  31  60 SW16      29.68S
TROY           CLEAR     45  27  49 S14G28    29.84F
SAGINAW HB     CLEAR     43  30  61 S17G25    29.70F
$$
MIZ043>046-050>051-056>058-064>065-071>073-077>080-210300-
SOUTHWEST LOWER MICHIGAN

CITY           SKY/WX    TMP DP  RH WIND       PRES   REMARKS
BATTLE CREEK   CLEAR     42  27  55 SW18G29   29.78S
BENTON HARBOR  CLEAR     46  28  49 S16G29    29.78R
BIG RAPIDS     CLOUDY    44  32  63 SW14G24   29.65F
COLDWATER      CLEAR     42  24  48 S13G22    29.81F
FREMONT        FAIR      47  37  66 SW20G37   29.68S
HOLLAND        CLEAR     47  31  53 SW23G31   29.73S
GRAND RAPIDS   PTCLDY    45  31  58 S15       29.73S
IONIA          FAIR      44  29  57 SW18      29.73R
KALAMAZOO      CLEAR     44  25  47 SW18G31   29.79S
LUDINGTON      CLEAR     47  38  71 S23G33    29.60F
MARSHALL       CLEAR     42  26  52 S13G20    29.79S
MOUNT PLEASANT CLOUDY    44  30  57 SW12G20   29.67S
MUSKEGON       CLOUDY    49  36  61 S28G39    29.70S
SOUTH HAVEN    PTCLDY    46  28  49 S15G26    29.76S
$$
MIZ016>042-210300-
NORTHERN LOWER MICHIGAN

CITY           SKY/WX    TMP DP  RH WIND       PRES   REMARKS
ALPENA         PTCLDY    39  31  72 S8        29.60F WCI  33
BEAVER ISLAND  CLEAR     46  37  70 S16G22    29.47F
BELLAIRE       CLEAR     45  37  73 S10G17    29.55F
CADILLAC       CLEAR     41  35  78 SW15G22   29.59F
CHARLEVOIX     CLEAR     45  34  67 S15G26    29.54F
FRANKFORT      PTCLDY    50  38  65 S23G33    29.54F
GAYLORD        PTCLDY    39  30  70 SW15G23   29.55F WCI  31
GRAYLING       CLOUDY    39  30  69 S6        29.59F WCI  35
HARBOR SPRINGS CLEAR     43  34  70 SW10G20   29.52F
MANISTEE       PTCLDY    49  37  63 S15G28    29.57F
OSCODA         CLOUDY    42  31  65 S15G23    29.63F
PELLSTON       CLEAR     41  33  73 S10G17    29.52F
ROGERS CITY    MOCLDY    40  31  71 S12G18    29.57F WCI  32
TRAVERSE CITY  PTCLDY    45  34  65 S8G20     29.54F
$$
MIZ007>008-015-210300-
EASTERN UPPER MICHIGAN

CITY           SKY/WX    TMP DP  RH WIND       PRES   REMARKS
KINROSS        PTCLDY    35  34  96 SE9       29.50F WCI  28
MACKINAC ISLAN PTCLDY    40  33  74 S8G16     29.51F
NEWBERRY       CLOUDY    40  38  91 S15       29.44F WCI  32
S. S. MARIE    CLOUDY    38  34  85 SE8       29.50F WCI  32
MUNISING         N/A     41  37  86 S10       29.35F
$$
MIZ004>006-011>014-085-210300-
CENTRAL UPPER MICHIGAN

CITY           SKY/WX    TMP DP  RH WIND       PRES   REMARKS
MANISTIQUE     CLOUDY    45  38  78 SW16G29   29.43F
ESCANABA       CLOUDY    44  37  76 S16       29.41F
MENOMINEE      MOCLDY    45  34  65 SW16      29.44F
SAWYER-GWINN   CLEAR     34  32  93 S16       29.35F WCI  23
$$
MIZ001>003-009>011-084-210300-
WESTERN UPPER MICHIGAN

CITY           SKY/WX    TMP DP  RH WIND       PRES   REMARKS
IRON MOUNTAIN  MOCLDY    36  28  73 S8        29.36F WCI  30
HOUGHTON       CLOUDY    36  28  73 SW10      29.26F WCI  28
COPPER HARBOR    N/A     41  30  65 SW10G20   29.25F
IRONWOOD       CLEAR     41  29  62 SW20G28   29.29F
$$

ABBREVIATIONS USED IN REMARKS
   TC - TEMPERATURE IN CELSIUS
  WCI - WIND CHILL INDEX
   HX - HEAT INDEX
  VSB - VISIBILITY





USA.gov is the U.S. government's official web portal to all federal, state and local government web resources and services.